www.pogodaiklimat.ru

Погода и климат >> Архив погоды >> Финляндия >> Маяк Nahkiainen


ПОГОДА на Маяке Nahkiainen

  • Прогноз погоды на Маяке Nahkiainen
  • Монитор погоды на Маяке Nahkiainen

АРХИВ ПОГОДЫ на Маяке Nahkiainen

Время (UTC), дата Ветер
(напр.,м/с)
 
Видим.   Явления Облачность Т
(С)
Тd
(С)
f
(%)
Тe
(С)
Тes
(С)
Комфортность P
(гПа)
Po
(гПа)
Тmin
(С)
Tmax
(С)
R
(мм)
R24
(мм)
S
(см)
01 13.09 н/о н/о +13.3 +8.7 74 1001.7 999.0
02 13.09 н/о н/о +12.8 +7.2 69 1001.3 998.5
03 13.09 н/о н/о +12.4 +6.6 68 1001.1 998.4
04 13.09 н/о н/о +12.1 +7.0 71 1001.0 998.3
05 13.09 н/о н/о +11.8 +6.7 71 1001.2 998.4
06 13.09 н/о н/о +11.4 +6.5 72 1001.5 998.7 +11.4 +14.9
07 13.09 н/о н/о +11.2 +6.4 72 1001.6 998.9
08 13.09 н/о н/о +11.1 +6.3 72 1001.9 999.1
09 13.09 н/о н/о +11.1 +5.2 67 1002.0 999.2
10 13.09 н/о н/о +11.1 +5.9 70 1002.1 999.4
11 13.09 н/о н/о +11.3 +5.2 66 1002.2 999.5
12 13.09 н/о н/о +11.5 +4.8 63 1002.2 999.5
13 13.09 н/о н/о +11.4 +5.5 67 1002.2 999.4
14 13.09 н/о н/о +11.1 +6.1 71 1002.0 999.2
15 13.09 н/о н/о +11.3 +7.7 78 1002.1 999.3
16 13.09 н/о н/о +10.6 +6.6 76 1002.6 999.9
17 13.09 н/о н/о +10.6 +6.8 77 1002.8 1000.0
18 13.09 н/о н/о +11.5 +5.6 67 1003.7 1000.9 +9.6 +11.8
19 13.09 н/о н/о +11.9 +6.0 67 1004.2 1001.4
20 13.09 н/о н/о +11.6 +5.7 67 1004.3 1001.6
21 13.09 н/о н/о +12.0 +6.0 67 1004.4 1001.7
22 13.09 н/о н/о +11.9 +6.8 71 1004.8 1002.0
23 13.09 н/о н/о +11.5 +6.9 73 1005.1 1002.3
00 14.09 н/о н/о +11.4 +4.9 64 1005.5 1002.7
01 14.09 н/о н/о +11.2 +5.0 66 1005.8 1003.0
02 14.09 н/о н/о +10.8 +5.1 68 1006.5 1003.7
03 14.09 н/о н/о +10.4 +5.9 74 1007.0 1004.2
04 14.09 н/о н/о +10.5 +5.9 73 1007.3 1004.5
05 14.09 н/о н/о +10.6 +6.4 75 1007.8 1005.1
06 14.09 н/о н/о +10.5 +5.8 73 1008.4 1005.6 +10.3 +12.1
07 14.09 н/о н/о +10.4 +5.7 73 1008.8 1006.0
08 14.09 н/о н/о +10.4 +5.2 70 1009.2 1006.5
09 14.09 н/о н/о +10.4 +5.3 71 1009.8 1007.0
10 14.09 н/о н/о +10.5 +5.0 69 1010.1 1007.3
11 14.09 н/о н/о +10.5 +5.7 72 1010.4 1007.6
12 14.09 н/о н/о +10.7 +5.1 68 1010.8 1008.0
13 14.09 н/о н/о +10.6 +4.1 64 1010.8 1008.0
14 14.09 н/о н/о +10.4 +4.8 68 1010.7 1007.9
15 14.09 н/о н/о +10.6 +3.1 60 1010.4 1007.6
16 14.09 н/о н/о +10.6 +4.3 65 1010.2 1007.4
17 14.09 н/о н/о +11.1 +5.5 68 1009.5 1006.8
18 14.09 н/о н/о +11.5 +3.6 58 1009.0 1006.2 +10.3 +11.6
19 14.09 н/о н/о +11.7 +4.8 63 1008.8 1006.0
20 14.09 н/о н/о +11.8 +3.8 58 1007.9 1005.1
21 14.09 н/о н/о +11.7 +4.7 62 1007.2 1004.4
22 14.09 н/о н/о +11.5 +5.5 67 1006.5 1003.7
23 14.09 н/о н/о +11.3 +4.9 65 1005.6 1002.8
00 15.09 н/о н/о +10.3 +7.8 84 1004.7 1001.9
01 15.09 н/о н/о +9.9 +7.3 84 1003.8 1001.0
02 15.09 н/о н/о +9.1 +6.3 83 1002.2 999.4
03 15.09 н/о н/о +8.9 +5.7 80 1000.8 998.0
04 15.09 н/о н/о +8.4 +5.6 83 999.1 996.3
05 15.09 н/о н/о +7.9 +5.1 82 997.4 994.7
06 15.09 н/о н/о +8.1 +4.9 80 996.3 993.5 +7.6 +11.9
07 15.09 н/о н/о +7.9 +5.1 82 995.1 992.3
08 15.09 н/о н/о +8.4 +5.0 79 993.9 991.1
09 15.09 н/о н/о +9.0 +4.6 74 992.3 989.5
10 15.09 н/о н/о +9.1 +4.3 72 991.1 988.3
11 15.09 н/о н/о +8.7 +4.5 75 990.0 987.2
12 15.09 н/о н/о
13 15.09 н/о н/о
14 15.09 н/о н/о
15 15.09 н/о н/о
16 15.09 н/о н/о
17 15.09 н/о н/о
18 15.09 н/о н/о
19 15.09 н/о н/о
20 15.09 н/о н/о
21 15.09 н/о н/о
22 15.09 н/о н/о
23 15.09 н/о н/о
00 16.09 н/о н/о
02 16.09 н/о н/о
03 16.09 н/о н/о
04 16.09 н/о н/о
05 16.09 н/о н/о +8.1 +3.2 71 991.9 989.1
06 16.09 н/о н/о +7.9 +3.6 74 992.4 989.6
07 16.09 н/о н/о +7.8 +2.5 69 992.8 990.0
08 16.09 н/о н/о +7.5 +3.5 76 993.0 990.2
09 16.09 н/о н/о +7.0 +3.7 79 993.7 990.9
10 16.09 -11
{13}
н/о н/о +7.5 +4.5 81 994.0 991.2
11 16.09 н/о н/о +7.6 +4.0 78 994.5 991.8
12 16.09 С 9-10
{11}
н/о н/о +8.2 +4.3 76 +3 +3 994.9 992.1
13 16.09 н/о н/о +8.7 +3.7 71 995.2 992.4
14 16.09 н/о н/о +9.1 +4.6 73 995.3 992.5
15 16.09 С 8-9
{10}
н/о н/о +9.5 +4.4 70 +5 +5 995.3 992.5
16 16.09 н/о н/о +9.7 +4.5 70 995.1 992.4
17 16.09 н/о н/о +9.5 +5.9 78 995.3 992.6
18 16.09 С 8-9
{10}
н/о н/о +9.0 +5.4 78 +5 +5 995.5 992.7 +6.9 +9.8
19 16.09 С 7-8
{9}
н/о н/о +8.7 +6.4 85 +4 +4 995.6 992.8
20 16.09 С 6-7
{8}
н/о н/о +8.2 +6.7 90 +4 +4 995.5 992.8
21 16.09 С 6-7
{8}
н/о н/о +8.4 +7.2 92 +4 +4 995.5 992.8
22 16.09 н/о н/о +8.2 +7.2 93 995.6 992.8
23 16.09 СВ 4-4
{4}
н/о н/о +9.2 +6.2 81 +6 +6 995.4 992.6
00 17.09 СВ 2-3
{6}
н/о н/о +8.6 +7.7 94 +7 +7 995.4 992.6
01 17.09 В 3-4
{6}
н/о н/о +8.7 +7.2 90 +6 +6 995.4 992.7
02 17.09 ЮВ 3-4
{7}
н/о н/о +8.6 +7.6 93 +6 +6 995.5 992.8
03 17.09 н/о н/о +9.7 +4.8 71 995.5 992.7
04 17.09 н/о н/о +9.3 +6.4 82 995.7 993.0
05 17.09 н/о н/о +9.7 +5.9 77 995.8 993.1
06 17.09 СВ 6-7
{8}
н/о н/о +9.3 +5.6 78 +6 +6 996.2 993.4 +8.1 +9.8
07 17.09 СВ 6-7
{8}
н/о н/о +9.2 +6.4 83 +6 +6 996.6 993.8
08 17.09 СВ 6-7
{7}
н/о н/о +9.1 +6.8 86 +5 +5 997.0 994.3
09 17.09 СВ 6-7
{7}
н/о н/о +8.9 +6.2 83 +5 +5 997.7 995.0
10 17.09 н/о н/о +9.0 +6.2 83 998.1 995.4
11 17.09 н/о н/о +9.2 +6.2 81 998.5 995.8
12 17.09 СВ 5-6
{7}
н/о н/о +9.8 +5.4 74 +7 +7 999.0 996.2
13 17.09 СВ 7-8
{8}
н/о н/о +10.0 +5.5 74 +6 +6 999.3 996.5
14 17.09 н/о н/о +10.2 +3.5 63 999.7 996.9
15 17.09 СВ 7-8
{9}
н/о н/о +10.5 +4.2 65 +7 +7 1000.1 997.4
16 17.09 н/о н/о +10.6 +4.9 68 1000.4 997.7
17 17.09 СВ 8-10
{10}
н/о н/о +10.0 +5.1 72 +6 +6 1001.0 998.2
18 17.09 СВ 9-10
{10}
н/о н/о +10.0 +4.4 68 +6 +6 1001.4 998.6 +8.1 +9.8
19 17.09 н/о н/о +9.7 +4.3 69 1001.8 999.0
20 17.09 н/о н/о +9.5 +3.9 68 1002.3 999.5
21 17.09 СВ 6-8
{9}
н/о н/о +9.5 +3.9 68 +6 +6 1002.8 1000.0
22 17.09 н/о н/о +9.0 +3.3 67 1003.1 1000.3
23 17.09 н/о н/о +8.5 +3.9 73 1003.5 1000.7
00 18.09 В 6-6
{7}
н/о н/о +8.2 +2.8 69 +4 +4 1004.1 1001.3
01 18.09 В 5-7
{7}
н/о н/о +8.2 +2.9 69 +5 +5 1004.3 1001.5
02 18.09 н/о н/о +8.4 +4.5 76 1004.7 1001.9
03 18.09 В 6-7
{8}
н/о н/о +7.7 +1.9 67 +4 +4 1005.3 1002.5
04 18.09 н/о н/о +7.8 +2.8 71 1005.6 1002.8
05 18.09 В 4-5
{6}
н/о н/о +7.7 +3.4 74 +4 +4 1006.4 1003.6
06 18.09 В 5-6
{7}
н/о н/о +7.2 +3.2 76 +3 +3 1006.9 1004.1 +7.1 +10.2
07 18.09 В 5-6
{6}
н/о н/о +7.2 +3.9 80 +3 +3 1007.4 1004.6
08 18.09 СВ 5-6
{7}
н/о н/о +7.5 +1.4 65 +4 +4 1007.9 1005.1
09 18.09 СВ 4-5
{6}
н/о н/о +7.7 +0.8 62 +5 +5 1008.6 1005.8
10 18.09 н/о н/о +7.8 0.0 58 1008.9 1006.0
11 18.09 СВ 4-6
{6}
н/о н/о +7.9 -0.4 56 +5 +5 1009.2 1006.4
12 18.09 С 4-5
{5}
н/о н/о +8.2 +1.0 60 +5 +5 1009.5 1006.7
13 18.09 н/о н/о +8.3 +1.6 63 1009.5 1006.7
14 18.09 С 4-5
{5}
н/о н/о +8.2 +1.2 61 +5 +5 1009.7 1006.9
15 18.09 С 3-4
{6}
н/о н/о +8.5 +1.8 63 +6 +6 1009.8 1007.0
16 18.09 н/о н/о +8.4 +0.9 59 1009.9 1007.1
17 18.09 н/о н/о +8.4 +0.7 58 1010.0 1007.2
18 18.09 -4
{4}
н/о н/о +8.6 +0.9 58 1010.2 1007.4 +7.1 +8.7
19 18.09 н/о н/о +8.6 +1.1 59 1010.3 1007.4
20 18.09 С 1-2
{2}
н/о н/о +8.6 +0.6 57 +8 +8 1010.2 1007.4
21 18.09 З 2-3
{3}
н/о н/о +8.2 -0.1 56 +7 +7 1010.2 1007.4
22 18.09 СВ 3-4
{4}
н/о н/о +7.9 +1.2 63 +5 +5 1010.1 1007.3
23 18.09 н/о н/о +6.9 +2.8 75 1010.1 1007.3
00 19.09 В 5-7
{8}
н/о н/о +5.5 +2.6 82 +1 +1 1010.0 1007.2
01 19.09 н/о н/о +5.6 +2.4 80 1010.3 1007.5
02 19.09 н/о н/о +5.3 +2.2 80 1010.0 1007.1
03 19.09 В 6-8
{9}
н/о н/о +4.6 +2.2 84 -1 -1 1010.4 1007.5
04 19.09 н/о н/о +4.7 +2.1 83 1010.9 1008.0
05 19.09 н/о н/о +5.4 +1.9 78 1011.2 1008.3
06 19.09 СВ 6-8
{8}
н/о н/о +5.5 +2.7 82 +1 +1 1011.8 1009.0 +4.5 +8.7
07 19.09 СВ 4-5
{8}
н/о н/о +4.8 +2.2 83 +1 +1 1012.5 1009.6
08 19.09 СВ 8-11
{12}
н/о н/о +5.5 +0.9 72 1013.1 1010.3
09 19.09 СВ 5-7
{8}
н/о н/о +6.4 +1.6 71 +2 +2 1013.6 1010.8
10 19.09 н/о н/о +7.4 +0.6 62 1013.6 1010.8
11 19.09 н/о н/о +7.2 +0.7 63 1013.8 1011.0
12 19.09 С 9-11
{12}
н/о н/о +7.3 +0.8 63 +2 +2 1014.1 1011.3
13 19.09 н/о н/о +8.0 -0.9 53 1014.3 1011.5
14 19.09 н/о н/о +7.9 -0.2 57 1014.3 1011.5
15 19.09 СЗ 9-11
{12}
н/о н/о +8.3 -1.6 50 +4 +4 1014.4 1011.5
16 19.09 н/о н/о +8.8 +0.1 54 1014.2 1011.4
17 19.09 н/о н/о +9.2 +0.1 53 1013.9 1011.1
18 19.09 СЗ 7-8
{14}
н/о н/о +9.0 +0.1 54 +5 +5 1013.6 1010.8 +4.6 +9.3
19 19.09 н/о н/о +9.1 -0.4 51 1013.3 1010.5
20 19.09 СЗ 10-12
{13}
н/о н/о +9.5 -2.4 43 +6 +6 1013.0 1010.3
21 19.09 СЗ 10-12
{14}
н/о н/о +9.6 -1.4 46 +5 +5 1013.2 1010.4
22 19.09 н/о н/о +9.3 -2.4 44 1013.4 1010.5
23 19.09 СЗ 10-12
{13}
н/о н/о +9.3 +0.1 53 +5 +5 1013.2 1010.4
00 20.09 С 9-11
{12}
н/о н/о +8.9 +0.7 56 +5 +5 1013.3 1010.4

 

Местоположение метеостанции Маяк Nahkiainen (Финляндия): широта 64.62 долгота 23.90 высота над уровнем моря 0 м.

В архиве по умолчанию представлена погода на Маяке Nahkiainen за последнюю неделю. Архивные данные за месяц целиком и за предыдущие месяцы, начиная с января 2011 года, Вы можете получить, выбрав интересующий диапазон дат из раскрывающегося списка и нажав кнопку "Ввод!".


*Определитесь, кто Вы:
робот инопланетянин человек

Внимание! Время в таблицах - всемирное. Для получения местного времени необходимо прибавить поправку, которая равна 1 ч.

Смотрите также архив погоды в соседних городах и на ближайших метеорологических станциях:

Погода в Раахе Лапалуто (Финляндия) (25 км)
Погода на Гуфускаларе (Исландия) (31 км)
Погода на Острове Улкокалла (Финляндия) (39 км)
Погода на Маяке Marjaniemi (Финляндия) (56 км)
Погода в Ревонлахти (Финляндия) (57 км)
Погода в Хайлуото (Финляндия) (59 км)
Погода в Юливиеске (Финляндия) (75 км)
Погода в Оулунсало Пеллонпаа (Финляндия) (78 км)
Погода в Оулу (Финляндия) (83 км)
Погода в Кеми (Финляндия) (86 км)

Пояснения к столбцам:

Ветер - указаны скорость ветра в м/с - средняя за 10 мин, порывы в срок и между сроками (в фигурных скобках) и направление, откуда дует ветер: С - северный, СВ - северо-восточный, В - восточный, ЮВ - юго-восточный, Ю - южный, ЮЗ - юго-западный, З - западный, СЗ - северо-западный.
Видимость - горизонтальная дальность видимости в метрах или километрах. При видимости от 1 до 10 км при отсутствии осадков обычно наблюдается дымка, при ухудшении видимости до 1 км и менее - туман. В сухую погоду видимость может ухудшаться дымом, пылью или мглою.
Явления - указаны атмосферные явления, наблюдавшиеся в срок или в последний час перед сроком; фигурными скобками обозначены явления, наблюдавшиеся между сроками (за 1-3 часа до срока); квадратными скобками обозначены град или гололедные отложения с указанием их диаметра в мм.
Облачность - указаны через наклонную черту общая и нижняя облачность в баллах и высота нижней границы облаков в метрах; квадратными скобками обозначены формы облаков: Ci - перистые, Cs - перисто-слоистые, Cc - перисто-кучевые, Ac - высококучевые, As - высокослоистые, Sc - слоисто-кучевые, Ns - слоисто-дождевые, Cu - кучевые, Cb - кучево-дождевые. Подробнее классификацию облаков см. в Атласе облаков (PDF).
T - Температура воздуха - температура, измеренная на высоте 2 м над землей.
Td - Температура точки росы - температура, при понижении до которой содержащийся в воздухе водяной пар достигнет насыщения.
f - Относительная влажность воздуха - влажноcть воздуха, измеренная на высоте 2 м над землей.
Te - Эффективная температура - температура, которую ощущает одетый по сезону человек в тени. Характеристика душности погоды. При расчете учитывается влияние влажности воздуха и скорости ветра на теплоощущения человека.
Tes - Эффективная температура на солнце - температура, которую ощущает человек, с поправкой на солнечный нагрев. Характеристика знойности погоды. Зависит от высоты солнца над горизонтом, облачности и скорости ветра. Ночью, в пасмурную погоду, а также при ветре 12 м/с и более поправка равна нулю.
P - Атмосферное давление - приведенное к уровню моря атмосферное давление.
Po - Атмосферное давление - измеренное на уровне метеостанции атмосферное давление.
Tmin - Минимальная температура - минимум температуры воздуха на высоте 2 м над землей.
Tmax - Максимальная температура - максимум температуры воздуха на высоте 2 м над землей.
R - Количество осадков - Количество выпавших осадков за период времени, мм. При наведении курсора мыши на число - период времени, за который выпало указанное количество осадков.
R24 - Количество осадков - Количество выпавших осадков за 24 часа, мм.
S - Снежный покров - Высота снежного покрова, см. При наведении курсора мыши на число - состояние снежного покрова и степень покрытия местности в баллах.